Regional Weather Roundup
Issued by NWS

Home | Current Version | Previous Version | Text Only | Print | Product List | Glossary On
Versions: 1 2 3 4 5 6 7 8 9 10 11 12 13 14 15 16 17 18 19 20 21 22 23 24 25 26 27 28 29 30 31 32 33 34 35 36 37 38 39 40 41 42 43 44 45 46 47 48 49 50
000
ASUS44 KLUB 260301
RWRTX
WEST TEXAS WEATHER ROUNDUP
NATIONAL WEATHER SERVICE LUBBOCK TX
1000 PM CDT TUE JUL 25 2017

NOTE: "FAIR" INDICATES FEW OR NO CLOUDS BELOW 12,000 FEET WITH NO
SIGNIFICANT WEATHER AND/OR OBSTRUCTIONS TO VISIBILITY.

TXZ004-006>008-010-012-014-016-OKZ002-260400-
TEXAS PANHANDLE/OKLAHOMA PANHANDLE

CITY           SKY/WX    TMP DP  RH WIND       PRES   REMARKS
AMARILLO       PTCLDY    86  58  38 S15       30.07S
BORGER         CLEAR     89  60  37 S14G22    30.02R
CANADIAN       CLEAR     89  66  46 S15G23    29.99R
DALHART        MOCLDY    86  57  37 S15       30.07R
DUMAS          PTCLDY    81  60  48 S12       30.06R
GUYMON         PTCLDY    89  60  37 S17       29.97R
PERRYTON       CLEAR     88  61  40 S10       30.00R
$$

TXZ026-029-035-045-048-260400-
SOUTHERN PANHANDLE/SOUTH PLAINS/ROLLING PLAINS

CITY           SKY/WX    TMP DP  RH WIND       PRES   REMARKS
CHILDRESS      CLEAR     91  62  37 S13       30.00R
SEMINOLE       CLEAR     84  58  41 S8        30.10R
LUBBOCK        PTCLDY    87  60  40 S15       30.07R
PLAINVIEW      CLEAR     83  60  46 S12       30.07R
SNYDER         CLEAR     88  64  44 SE9       30.06R
$$

TXZ052-054-060>062-072-078-127-140-154-169-260400-
PERMIAN BASIN/CONCHO VALLEY/BIG COUNTRY/EDWARDS PLATEAU

CITY           SKY/WX    TMP DP  RH WIND       PRES   REMARKS
ABILENE        CLEAR     85  63  47 SE8       30.04R
BIG SPRING     CLEAR     87  60  39 SE10      30.09R
BROWNWOOD      MOCLDY    82  64  54 SE7       30.04R
JUNCTION       CLEAR     88  66  48 SE9       30.05R
MIDLAND        CLEAR     87  60  40 S9        30.07R
ODESSA         CLEAR     88  58  36 S12       30.09R
SAN ANGELO     CLEAR     85  60  42 SE3       30.03R
SONORA         CLEAR     86  64  48 CALM      30.10R
SWEETWATER     CLEAR     85  62  45 SE8       30.09R
WINK           CLEAR     88  57  34 SE12      30.03R
$$

TXZ055-058-074-075-080-082-260400-
FAR WEST/SOUTHWEST MOUNTAINS/TRANS PECOS

CITY           SKY/WX    TMP DP  RH WIND       PRES   REMARKS
ALPINE         CLEAR     79  58  49 SE8       30.22R
DRYDEN           N/A     87  62  43 E10       30.01R
EL PASO        MOCLDY    90  57  32 W8        30.08R
FORT STOCKTON  CLEAR     85  63  47 SE14      30.07R
GUADALUPE PASS CLOUDY    78  57  48 NE8       30.24R
PRESIDIO       FAIR      91  57  31 NE3       30.02R
$$

TXZ014-016-019-021>030-083-260400
TEXAS TECH WEST TEXAS MESONET/TEXAS PANHANDLE/NORTHERN SOUTH PLAINS

CITY           SKY/WX    TMP DP  RH WIND       PRES   REMARKS
ABERNATHY 5ENE   N/A     84  60  43 S10       30.09R
AMARILLO 9NNE    N/A     87  59  38 S12       30.04R
AMARILLO 7SSE    N/A     85  58  39 S13       30.09R
AMHERST 1NE      N/A     81  57  43 S8        30.09R
BOOTLEG 11WNW    N/A     81  57  43 S14       30.14R
CANADIAN 6E      N/A     87  66  48 SE17      29.98R
CAPROCK CYN SP   N/A     86  62  44 S9        30.04R
CHILDRESS 2NNE   N/A     90  61  37 SE13      29.99R
CLARENDON 2WSW   N/A     87  60  39 SE13      30.04R
CLAUDE 12SW      N/A     86  59  39 SE6       30.08R
DIMMITT 2NE      N/A     80  59  48 SE10      30.10R
FLOYDADA 2NNE    N/A     83  59  44 SE9       30.08R
FRIONA 2NE       N/A     80  57  44 S12       30.11R
GOODLETT 3W      N/A     91  60  35 SE10      29.98R
HART 3N          N/A     79  60  52 SE6       30.09R
HEREFORD 2NW     N/A     83  54  37 S7        30.10R
MCLEAN 1E        N/A     86  58  38 SE8       30.03S
MEMPHIS 1NE      N/A     90  60  36 SE7       29.99R
MULESHOE 2SSW    N/A     79  58  48 S8        30.10R
OLTON 6S         N/A     82  57  42 S9        30.08R
PALO DURO SP     N/A     87  59  38 S12       30.08S
PAMPA 2E         N/A     85  60  43 SE12      30.05R
PLAINVIEW 1S     N/A     85  61  44 SE10      30.07R
SILVERTON 7ESE   N/A     85  60  42 S13       30.07R
TULIA 2ENE       N/A     83  62  49 SE10      30.08R
TURKEY 2WSW      N/A     86  64  48 SE9       30.02R
UMBARGER 3NNE    N/A     85  58  40 S12       30.09R
$$

TXZ033>036-039>041-045>048-260400
TEXAS TECH WEST TEXAS MESONET/SOUTH PLAINS

CITY           SKY/WX    TMP DP  RH WIND       PRES   REMARKS
AIKEN 3WSW       N/A     82  63  52 SE10      30.09R
ANDREWS 2NE      N/A     86  55  35 S7        30.09R
ANTON 6SSW       N/A     81  61  50 SE10      30.08R
BROWNFIELD 2S    N/A     85  59  41 SE9       30.09R
DENVR CTY 7WNW   N/A     83  52  35 SE9       30.10R
GAIL 2ESE        N/A     88  60  38 SE10      30.04R
LAMESA 2SE       N/A     86  59  39 SE10      30.08R
LEVELLAND 4S     N/A     84  56  37 SE10      30.09R
LUBBOCK 3WNW     N/A     87  58  36 SE14      30.08R
MORTON 1ENE      N/A     82  59  46 SE8       30.10R
ODONNELL 1N      N/A     86  56  35 SE7       30.07S
PLAINS 3N        N/A     85  55  36 SE10      30.10S
RALLS 1SE        N/A     86  58  39 S10       30.09R
REESE CENTER     N/A     85  57  38 SE14      30.08R
SEAGRAVES 1SW    N/A     85  58  39 S8        30.09R
SEMINOLE 2NNE    N/A     86  55  35 S9        30.09R
SLATON 2NE       N/A     86  59  39 S9        30.08R
SNYDER 3E        N/A     87  62  42 SE12      30.05R
SUNDOWN 8SW      N/A     82  56  41 SE8       30.10R
TAHOKA 3NNE      N/A     84  59  42 SE8       30.07S
WOLFFORTH 6SSW   N/A     86  58  39 SE8       30.09R
$$

TXZ031-032-036>038-042>044-260400-
TEXAS TECH WEST TEXAS MESONET/ROLLING PLAINS

CITY           SKY/WX    TMP DP  RH WIND       PRES   REMARKS
ASPERMONT 3NE    N/A     91  62  37 SE9       30.01R
FLUVANNA 3WNW    N/A     85  60  41 SE9       30.06R
GRAHAM 5SSW      N/A     87  59  39 SE14      30.06S
GUTHRIE 10WSW    N/A     89  61  38 SE8       30.01R
HASKELL 1NW      N/A     89  59  36 SE6       30.01R
JAYTON 1SSE      N/A     88  61  41 SE7       30.02R
KNOX CITY 3NW    N/A     91  59  33 SE12      29.99S
LK A HENRY 1NW   N/A     90  60  36 S9        30.03R
NORTHFIELD 1S    N/A     87  62  43 SE12      30.00R
ODELL 4ENE       N/A     87  69  56 SE13      29.99S
PADUCAH 10SW     N/A     87  63  43 SE9       30.01R
POST 1NE         N/A     87  60  40 SE7       30.05R
RRING SPRGS 3N   N/A     86  62  45 SE7       30.04R
SEYMOUR 3NW      N/A     91  63  39 SE12      29.99R
SPUR 1W          N/A     86  59  39 SE7       30.02S
WEINERT 2NNE     N/A     89  65  44 SE8       30.01R
WHITE RVR 6NE    N/A     85  61  44 SE8       30.05R
$$

TXZ052-054-060>062-072-078-127-140-154-169-260400-
TEXAS TECH WEST TEXAS MESONET/PERMIAN BASIN/
CONCHO VALLEY/BIG COUNTRY/EDWARDS PLATEAU

CITY           SKY/WX    TMP DP  RH WIND       PRES   REMARKS
COYANOSA 2N      N/A     88  61  40 SE10      30.04R
JUNCTION 1SSW    N/A     86  67  51 SE6       30.06R
MERTZON 3NNE     N/A     83  65  54 S2        30.06S
SAN ANGELO 7NW   N/A     85  56  36 E2        30.04S
STRLNG CT 4WSW   N/A     86  61  42 SE6       30.07R
ST LAWRNCE 5SW   N/A     84  59  43 SE9       30.07R
SWEETWATR 11SW   N/A     85  64  50 SE8       30.08R
WALL 1E          N/A     82  67  59 SE6       30.05R
$$

TXZ055-058-074-075-080-082-260400-
TEXAS TECH WEST TEXAS MESONET/FAR WEST/SOUTHWEST MOUNTAINS/TRANS PECOS

CITY           SKY/WX    TMP DP  RH WIND       PRES   REMARKS
PRSMN GAP BBNP   N/A     90  60  36 NE9       30.03R
GUADLPE MTN NP   N/A     76  55  48 NW5       30.25S
$$




USA.gov is the U.S. government's official web portal to all federal, state and local government web resources and services.